Regional Weather Roundup
Issued by NWS

Home | Current Version | Previous Version | Graphics & Text | Print | Product List | Glossary On
Versions: 1 2 3 4 5 6 7 8 9 10 11 12 13 14 15 16 17 18 19 20 21 22 23 24 25 26 27 28 29 30 31 32 33 34 35 36 37 38 39 40 41 42 43 44 45 46 47 48 49 50
150
ASUS43 KDMX 130708
RWRIA

WEATHER ROUNDUP FOR IOWA
NATIONAL WEATHER SERVICE DES MOINES IA
100 AM CST SAT FEB 13 2016

NOTE: "FAIR" INDICATES FEW OR NO CLOUDS BELOW 12,000 FEET WITH NO
SIGNIFICANT WEATHER AND/OR OBSTRUCTIONS TO VISIBILITY.

* - THESE STATIONS ARE NOT NWS STATIONS...THUS NOT UNDER NWS
QUALITY CONTROL.  THEY ALSO DO NOT REPORT WEATHER SUCH
AS PRECIPITATION OR FOG.

IAZ001>003-012>014-020>022-031>034-043>046-130800-
   NORTHWEST IOWA

CITY           SKY/WX    TMP DP  RH WIND       PRES   REMARKS
CARROLL *      CLEAR      0  -6  78 NW8       30.64R WCI -15
CHEROKEE *     CLOUDY    -2  -6  84 CALM      30.64R
DENISON *      CLEAR      1  -4  78 N5        30.62R WCI  -8
LE MARS *      PTCLDY     1  -4  78 CALM      30.66S
ORANGE CITY *  CLEAR      0  -6  78 N6        30.61S WCI -12
SHELDON *      CLEAR     -6 -11  77 N3        30.60F
SIOUX CITY     CLOUDY     7  -6  55 NE7       30.64S WCI  -5
SPENCER        CLOUDY    -5 -11  75 NW8       30.61S WCI -20
STORM LAKE *   CLEAR     -2  -8  78 NW6       30.61R WCI -14
$$

IAZ055>058-069>071-079>083-090>094-130800-
   SOUTHWEST IOWA

CITY           SKY/WX    TMP DP  RH WIND       PRES   REMARKS
ATLANTIC *     MOCLDY     5  -2  72 N8        30.63F WCI  -8
AUDUBON *      CLEAR      1  -6  71 N6        30.62F WCI -10
CLARINDA *     CLOUDY    12   3  67 NE10      30.65S WCI  -1
COUNCIL BLFS * CLOUDY    10   0  61 NE9       30.62S WCI  -2
CRESTON *      CLEAR      5  -2  72 N12       30.61F WCI -11
HARLAN  *      CLEAR      5  -2  72 NE8       30.66F WCI  -8
LAMONI         CLOUDY     6  -1  73 N10       30.61R WCI  -9
RED OAK *      CLOUDY    10   1  67 N10       30.64S WCI  -3
SHENANDOAH *   CLOUDY    12   1  62 NE12      30.64S WCI  -2
$$

IAZ047>049-059>061-072>074-084-130800-
   CENTRAL IOWA

CITY           SKY/WX    TMP DP  RH WIND       PRES   REMARKS
AMES           CLOUDY     2  -4  76 N12       30.63S WCI -15
ANKENY *       CLEAR      3  -4  72 NW8       30.65R WCI -10
BOONE *        CLEAR      1  -6  71 NW9       30.61R WCI -14
CHARITON *     CLEAR      3  -2  78 NW8       30.62S WCI -10
DES MOINES     CLOUDY     4  -4  69 NW6       30.64S WCI  -7
GRINNELL*      PTCLDY     3   0  85 NW8       30.61S WCI -10
KNOXVILLE *    CLEAR      5  -4  66 NW10      30.62S WCI -10
MARSHALLTOWN   CLOUDY     0  -4  83 NW8       30.61S WCI -14
NEWTON *       CLEAR      3  -2  78 NW10      30.62S WCI -12
PELLA *        CLOUDY     3  -2  78 NW6       30.64S WCI  -8
$$

IAZ004>006-015-016-023>025-035-036-130800-
   NORTH CENTRAL IOWA

CITY           SKY/WX    TMP DP  RH WIND       PRES   REMARKS
ALGONA *       CLEAR     -2  -6  84 N6        30.60S WCI -14
CLARION *      CLEAR     -2  -9  71 N8        30.61S WCI -17
ESTHERVILLE    CLOUDY    -4  -9  79 NW8       30.60R WCI -19
FORT DODGE *   CLOUDY    -2  -9  71 NW5       30.63R WCI -12
MASON CITY     CLOUDY    -5 -10  79 NW8       30.61S WCI -20
FOREST CITY *  CLEAR      0  -8  71 NW7       30.59S WCI -13
WEBSTER CITY * CLEAR     -4  -9  77 W8        30.61R WCI -19
IOWA FALLS *     N/A     -2  -6  84 NW9       30.61R WCI -18
$$

IAZ007>011-017>019-026>030-037>042-050>054-066-130800-
   NORTHEAST IOWA

CITY           SKY/WX    TMP DP  RH WIND       PRES   REMARKS
CEDAR RAPIDS   CLOUDY     4  -4  69 N12       30.59R WCI -12
CHARLES CITY * CLEAR      0 -11  60 NW13      30.59S WCI -18
CLINTON *      CLEAR      5  -3  69 NW9       30.58R WCI  -9
DECORAH *      CLEAR     -2 -13  60 NW8       30.55R WCI -17
DUBUQUE        CLEAR      3  -9  57 N12       30.54R WCI -13
MONTICELLO *   CLEAR      3  -8  60 NW7       30.58R WCI  -9
OELWEIN *      CLEAR     -2 -11  65 NW12      30.59R WCI -20
WATERLOO       CLOUDY     0  -9  65 NW7       30.61S WCI -13
$$

IAZ064-065-067-068-078-130800-
   EAST CENTRAL IOWA

CITY           SKY/WX    TMP DP  RH WIND       PRES   REMARKS
DAVENPORT      CLEAR      6  -5  60 NW12      30.58R WCI  -9
IOWA CITY      CLEAR      7  -5  57 NW12      30.63R WCI  -8
MT. PLEASANT * CLOUDY    10   0  61 NW9       30.61R WCI  -2
MUSCATINE *    CLEAR      9  -4  56 NW10      30.63R WCI  -6
QUAD CITIES    CLEAR      8  -6  52 NW9       30.59R WCI  -5
$$

IAZ062-063-075>077-085>089-095>099-130800-
   SOUTHEAST IOWA

CITY           SKY/WX    TMP DP  RH WIND       PRES   REMARKS
BURLINGTON     MOCLDY     8  -1  66 N13       30.60R WCI  -8
FAIRFIELD *    CLEAR      7  -4  61 NW12      30.61S WCI  -9
FORT MADISON * CLEAR      9   0  66 NW12      30.60R WCI  -6
KEOKUK *       CLEAR      9   0  66 N8        30.60S WCI  -4
OSKALOOSA *      N/A      5   0  78 NW9       30.63R WCI  -9
CENTERVILLE *  CLEAR      5   0  78 NW8       30.63R WCI  -8
OTTUMWA        CLOUDY     5   0  79 NW13      30.62S WCI -12
WASHINGTON *   CLEAR      7  -2  66 NW12      30.62S WCI  -9
$$

ABBREVIATIONS USED IN REMARKS
   TC - TEMPERATURES IN CELSIUS
  WCI - WIND CHILL INDEX
   HX - HEAT INDEX
  VSB - VISIBILITY
$$





USA.gov is the U.S. government's official web portal to all federal, state and local government web resources and services.